| time (UTC) | temp F | wind direction | speed MPH | gust MPH | rain 1hr in | rain 24hr in | rain mn in | humidity % | barometer mb |
| 20260505013016 | 58 | 199 | 1.0 | 6.0 | 0.00 | 0.00 | 0.00 | 54 | 1008.9 |
| 20260505011511 | 59 | 202 | 1.0 | 3.0 | 0.00 | 0.00 | 0.00 | 53 | 1008.7 |
| 20260505010011 | 59 | 179 | 1.0 | 4.0 | 0.00 | 0.00 | 0.00 | 51 | 1008.5 |
| 20260505004510 | 60 | 224 | 1.0 | 4.0 | 0.00 | 0.00 | 0.00 | 50 | 1008.1 |
| 20260505003009 | 61 | 229 | 1.0 | 4.0 | 0.00 | 0.00 | 0.00 | 49 | 1007.8 |
| 20260505001509 | 61 | 217 | 4.0 | 7.0 | 0.00 | 0.00 | 0.00 | 47 | 1007.3 |
| 20260505000011 | 62 | 304 | 1.0 | 6.0 | 0.00 | 0.00 | 0.00 | 47 | 1007.0 |
| 20260504234508 | 63 | 203 | 3.0 | 6.0 | 0.00 | 0.00 | 0.00 | 45 | 1006.7 |
| 20260504233007 | 63 | 203 | 2.0 | 8.0 | 0.00 | 0.00 | 0.00 | 45 | 1006.6 |
| 20260504231507 | 65 | 150 | 3.0 | 10.0 | 0.00 | 0.00 | 0.00 | 43 | 1006.4 |
| 20260504230012 | 66 | 211 | 2.0 | 8.0 | 0.00 | 0.00 | 0.00 | 40 | 1006.1 |
| 20260504224505 | 67 | 169 | 3.0 | 7.0 | 0.00 | 0.00 | 0.00 | 38 | 1005.8 |
| 20260504223005 | 69 | 212 | 4.0 | 9.0 | 0.00 | 0.00 | 0.00 | 36 | 1005.6 |
| 20260504221505 | 70 | 219 | 2.0 | 6.0 | 0.00 | 0.00 | 0.00 | 35 | 1005.6 |
| 20260504220004 | 71 | 200 | 3.0 | 9.0 | 0.00 | 0.00 | 0.00 | 32 | 1005.5 |
| 20260504214503 | 71 | 205 | 2.0 | 7.0 | 0.00 | 0.00 | 0.00 | 30 | 1005.5 |
| 20260504213009 | 71 | 207 | 3.0 | 6.0 | 0.00 | 0.00 | 0.00 | 30 | 1005.4 |
| 20260504211506 | 72 | 231 | 2.0 | 11.0 | 0.00 | 0.00 | 0.00 | 29 | 1005.4 |
| 20260504210002 | 71 | 217 | 4.0 | 12.0 | 0.00 | 0.00 | 0.00 | 29 | 1005.4 |
| 20260504204500 | 72 | 171 | 5.0 | 10.0 | 0.00 | 0.00 | 0.00 | 29 | 1005.4 |
| 20260504203122 | 72 | 196 | 2.0 | 8.0 | 0.00 | 0.00 | 0.00 | 29 | 1005.4 |
| 20260504201559 | 71 | 228 | 4.0 | 9.0 | 0.00 | 0.00 | 0.00 | 30 | 1005.5 |
| 20260504200059 | 73 | 205 | 6.0 | 11.0 | 0.00 | 0.00 | 0.00 | 28 | 1005.5 |
| 20260504194606 | 72 | 218 | 5.0 | 14.0 | 0.00 | 0.00 | 0.00 | 27 | 1005.7 |
| 20260504193110 | 72 | 198 | 4.0 | 9.0 | 0.00 | 0.00 | 0.00 | 28 | 1005.7 |
| 20260504191556 | 71 | 179 | 5.0 | 12.0 | 0.00 | 0.00 | 0.00 | 27 | 1005.7 |
| 20260504190114 | 72 | 193 | 3.0 | 8.0 | 0.00 | 0.00 | 0.00 | 26 | 1005.8 |
| 20260504184600 | 72 | 200 | 2.0 | 8.0 | 0.00 | 0.00 | 0.00 | 28 | 1005.9 |
| 20260504183051 | 72 | 190 | 3.0 | 12.0 | 0.00 | 0.00 | 0.00 | 29 | 1006.0 |
| 20260504181548 | 71 | 187 | 2.0 | 10.0 | 0.00 | 0.00 | 0.00 | 29 | 1006.2 |
| 20260504180049 | 70 | 218 | 4.0 | 12.0 | 0.00 | 0.00 | 0.00 | 29 | 1006.3 |
| 20260504174546 | 70 | 224 | 4.0 | 9.0 | 0.00 | 0.00 | 0.00 | 30 | 1006.5 |
| 20260504173048 | 69 | 304 | 3.0 | 9.0 | 0.00 | 0.00 | 0.00 | 29 | 1006.6 |
| 20260504171541 | 69 | 154 | 5.0 | 11.0 | 0.00 | 0.00 | 0.00 | 29 | 1006.6 |
| 20260504081513 | 45 | 205 | 1.0 | 2.0 | 0.00 | 0.03 | 0.00 | 58 | 1009.3 |
| 20260504060105 | 44 | 214 | 0.0 | 1.0 | 0.00 | 0.03 | 0.00 | 62 | 1009.2 |
| 20260504044558 | 40 | 226 | 0.0 | 1.0 | 0.00 | 0.03 | 0.00 | 68 | 1009.3 |
| 20260504043044 | 39 | 264 | 0.0 | 1.0 | 0.00 | 0.03 | 0.00 | 68 | 1009.2 |
| 20260504041539 | 38 | 264 | 0.0 | 0.0 | 0.00 | 0.03 | 0.00 | 69 | 1009.1 |
| 20260504040036 | 37 | 264 | 0.0 | 0.0 | 0.00 | 0.03 | 0.00 | 69 | 1009.0 |
| 20260504034540 | 37 | 264 | 0.0 | 0.0 | 0.00 | 0.03 | 0.03 | 68 | 1008.9 |
| 20260504033046 | 38 | 264 | 0.0 | 0.0 | 0.00 | 0.03 | 0.03 | 67 | 1008.7 |
| 20260504031533 | 38 | 264 | 0.0 | 0.0 | 0.00 | 0.03 | 0.03 | 65 | 1008.7 |
| 20260504030029 | 39 | 264 | 0.0 | 0.0 | 0.00 | 0.03 | 0.03 | 64 | 1008.7 |
| 20260504024526 | 39 | 264 | 0.0 | 0.0 | 0.00 | 0.03 | 0.03 | 64 | 1008.6 |
| 20260504023026 | 39 | 264 | 0.0 | 0.0 | 0.00 | 0.03 | 0.03 | 64 | 1008.6 |
| 20260504021533 | 40 | 264 | 0.0 | 0.0 | 0.00 | 0.03 | 0.03 | 64 | 1008.6 |
| 20260504020025 | 39 | 264 | 0.0 | 0.0 | 0.00 | 0.03 | 0.03 | 63 | 1008.5 |
| 20260504014521 | 40 | 264 | 0.0 | 0.0 | 0.00 | 0.03 | 0.03 | 62 | 1008.4 |